Back to catalog

STARLINK-33966

AliveCommunicationsVLEO
NORAD 64203·PAYLOAD·🇺🇸 United States

Launched May 31, 2025 from Vandenberg Space Force Base

Loading…

Next Passes (next 24 hours)

TLE

FreshSource: CelesTrak SupGP

Epoch: Sep 14, 2026, 15:34 UTC

1 64203C 25117A   26257.64909722 -.00025320  00000+0 -74836-3 0  2573
2 64203  53.1569 240.7041 0001270  86.0224 259.5081 15.34391562    16

Track STARLINK-33966 in real time with AllMySat

Download on the App Store